[[{"header":{"parameterUnit":"m.s-1","parameterCategory":1,"la1":30.2991,"la2":30.254,"lo1":-89.0895,"lo2":-89.0444,"dy":0.0017,"dx":0.0017,"nx":28,"ny":28,"refTime":"2024-08-06T21:00:00:Z","depth":0,"parameterNumber":2,"parameterNumberName":"U-component_of_WINDS"},"data":[0,0,0,0,0,0,0,0,0,0,0,0,0,0,0,0,0,0,0,0,0,0,0,0,0,0,0,0,0,0,0,0,0,0,0,0,0,0,0,0,0,0,0,0,0,0,0,0,0,0,0,0,0,0,0,0,0,0,3.0059,3.006,0,3.0165,3.0166,3.0167,3.0146,3.0144,3.0142,3.0141,3.025,3.0255,3.026,0,0,0,0,0,0,0,0,0,0,0,0,0,2.9841,2.9845,3.0059,3.006,3.0061,3.0165,3.0166,3.0168,3.0147,3.0144,3.0142,3.014,3.0249,3.0254,3.026,0,0,0,0,0,0,0,0,0,0,0,0,0,2.994,2.9846,3.0059,3.0063,3.0065,3.0164,3.0166,3.0168,3.0147,3.0144,3.0141,3.0139,3.0247,3.0254,3.0261,3.0363,0,0,3.0283,3.0286,0,0,0,0,0,0,0,0,2.9934,2.9948,3.0061,3.0063,3.0065,3.0139,3.013,3.0233,3.0148,3.0116,3.0141,3.0137,3.0216,3.0225,3.0252,3.0368,3.0372,3.0283,3.0287,3.029,3.0292,0,0,0,0,0,0,0,2.9927,2.9943,3.0101,3.0063,3.0065,3.0061,3.0072,3.0149,3.0181,3.0119,3.0117,3.013,3.0216,3.0245,3.0254,3.0374,3.0283,3.0289,3.0294,3.0296,3.0581,3.0585,0,0,0,0,0,0,2.9919,2.9938,3.0097,3.0104,2.9991,3.0067,3.008,3.0119,3.018,3.0187,3.0132,3.0129,3.0234,3.0246,3.0258,3.0382,3.029,3.0297,3.0301,3.0578,3.0582,3.0586,0,0,0,0,0,0,2.9914,2.9933,3.0093,3.0021,3.0041,3.0074,3.0118,3.0122,3.0151,3.0191,3.0196,3.0156,3.0232,3.0248,3.0337,3.0386,3.03,3.0307,3.0574,3.0579,3.0584,3.0631,0,0,0,0,0,0,2.9908,2.9931,2.997,3.0022,3.0045,3.017,3.0121,3.0126,3.0163,3.0159,3.0214,3.022,3.0231,3.0327,3.0344,3.0394,3.0312,3.057,3.0577,3.0582,3.0625,3.0637,3.0647,0,0,0,0,0,2.99,2.9978,2.9972,2.9991,3.0093,3.0173,3.0186,3.0197,3.0167,3.0206,3.0232,3.0218,3.0378,3.0336,3.0356,3.0408,3.0567,3.0575,3.0582,3.062,3.0635,3.0647,0,0,0,0,0,0,2.9931,2.9985,2.9978,3.0076,3.012,3.0169,3.0219,3.0211,3.0265,3.0259,3.0271,3.0284,3.0375,3.0401,3.0353,3.0511,3.0468,3.048,3.0491,3.0505,3.0515,3.0507,3.0318,0,0,0,0,0,2.9949,3.0009,3.0053,3.0135,3.0158,3.0185,3.022,3.0225,3.0271,3.0289,3.0322,3.0368,3.0429,3.0468,3.0526,3.0629,3.0642,3.0675,3.0686,3.0695,3.0705,3.0763,3.0779,3.061,3.061,3.061,0,0,2.9987,3.0024,3.0061,3.0142,3.0177,3.024,3.02,3.0267,3.0314,3.03,3.0386,3.0412,3.0464,3.0561,3.0606,3.0586,3.0754,3.0704,3.0711,3.0716,3.0772,3.0788,3.0803,3.0615,3.0614,3.0614,0,0,3.0089,3.0122,3.0195,3.0231,3.0284,3.0302,3.032,3.0371,3.0387,3.0474,3.0465,3.0522,3.0625,3.0664,3.0696,3.0815,3.0805,3.0834,3.0891,3.0947,3.0961,3.0972,3.1016,3.1031,3.0844,3.0844,3.0844,0,3.0129,3.0222,3.0233,3.0302,3.0338,3.0329,3.0403,3.0438,3.0507,3.0533,3.051,3.0641,3.0676,3.0782,3.0812,3.0838,3.086,3.0827,3.0958,3.097,3.0981,3.1023,3.1039,3.0847,3.0847,3.0846,3.0846,0,3.027,3.0335,3.0388,3.0455,3.0498,3.0569,3.0592,3.0634,3.0636,3.0657,3.0747,3.0788,3.0855,3.0881,3.0883,3.0989,3.0975,3.0955,3.0912,3.1,3.1039,3.1055,3.0852,3.0851,3.085,3.0849,0,0,3.0392,3.0467,3.0486,3.0517,3.0577,3.0628,3.0699,3.0765,3.0801,3.0851,3.0912,3.1001,3.0983,3.1021,3.1028,3.1078,3.1171,3.1052,3.1053,3.1073,3.1292,3.1306,3.1325,3.1165,3.1168,3.1171,3.1287,0,3.05,3.0625,3.0638,3.0751,3.0812,3.0805,3.0868,3.0912,3.0934,3.099,3.1015,3.1078,3.1049,3.1072,3.1121,3.1149,3.1215,3.1141,3.1223,3.1226,3.121,3.1345,3.136,3.1469,3.1303,3.1305,3.1307,0,3.0641,3.0694,3.0814,3.0866,3.0892,3.0948,3.1011,3.1064,3.1114,3.1127,3.1171,3.1172,3.1247,3.1202,3.1307,3.1257,3.1291,3.1311,3.1315,3.1323,3.1271,3.1357,3.1503,3.152,3.1331,3.1329,3.1328,0,3.0719,3.0821,3.0906,3.0933,3.0996,3.1036,3.1065,3.1112,3.1152,3.1207,3.1232,3.1296,3.133,3.138,3.1398,3.1364,3.1503,3.1459,3.1517,3.1516,3.1546,3.1543,3.17,3.1568,3.1568,3.1568,3.1567,0,3.0837,3.091,3.0942,3.0994,3.1077,3.1092,3.1173,3.12,3.1243,3.1302,3.13,3.1355,3.1376,3.1435,3.145,3.1536,3.1552,3.1565,3.1568,3.1565,3.1563,3.1587,3.158,3.1572,3.1571,3.157,3.1569,0,3.0937,3.0961,3.1053,3.1106,3.1122,3.118,3.1226,3.1278,3.13,3.1374,3.1392,3.1427,3.1497,3.1521,3.1605,3.1615,3.1715,3.1712,3.1698,3.1698,3.1755,3.1749,3.1932,3.1957,3.1809,3.181,3.1811,0,3.1011,3.1067,3.1127,3.1165,3.1195,3.1258,3.1298,3.1316,3.1359,3.1422,3.1466,3.1535,3.1591,3.1703,3.1737,3.1802,3.18,3.186,3.181,3.1806,3.1802,3.1798,3.1804,3.1869,3.187,3.1872,3.1873,0,3.1139,3.1149,3.1207,3.127,3.1318,3.1369,3.1418,3.145,3.1475,3.1523,3.1594,3.1638,3.1725,3.1794,3.1861,3.1891,3.1887,3.1889,3.1905,3.1903,3.1892,3.1899,3.1723,3.1884,3.1883,3.1882,3.1881,3.1881,3.1229,3.1279,3.1329,3.1395,3.1434,3.148,3.1531,3.156,3.162,3.1691,3.1699,3.1776,3.1828,3.1917,3.1951,3.2012,3.1996,3.202,3.2026,3.2032,3.2036,3.1883,3.2025,3.2024,3.2024,3.2024,3.2024,0,3.1357,3.139,3.145,3.1519,3.1571,3.1562,3.1617,3.1661,3.1728,3.1777,3.1832,3.1915,3.1983,3.2023,3.2091,3.2133,3.2133,3.215,3.2147,3.2155,3.2047,3.2026,3.2149,3.2149,3.2149,3.2149,3.2149,3.2149,3.143,3.1516,3.1532,3.1637,3.1669,3.1744,3.1776,3.182,3.1859,3.1951,3.2007,3.2033,3.2079,3.2151,3.2213,3.2223,3.2248,3.2268,3.2276,3.2175,3.2162,3.215,3.213,3.2273,3.2273,3.2379,3.238,3.2381]},{"header":{"parameterUnit":"m.s-1","parameterCategory":1,"la1":30.2991,"la2":30.254,"lo1":-89.0895,"lo2":-89.0444,"dy":0.0017,"dx":0.0017,"nx":28,"ny":28,"refTime":"2024-08-06T21:00:00:Z","depth":0,"parameterNumber":3,"parameterNumberName":"V-component_of_WINDS"},"data":[0,0,0,0,0,0,0,0,0,0,0,0,0,0,0,0,0,0,0,0,0,0,0,0,0,0,0,0,0,0,0,0,0,0,0,0,0,0,0,0,0,0,0,0,0,0,0,0,0,0,0,0,0,0,0,0,0,0,-2.4613,-2.4614,0,-2.4694,-2.4695,-2.4696,-2.4683,-2.4682,-2.468,-2.4679,-2.4764,-2.4767,-2.4771,0,0,0,0,0,0,0,0,0,0,0,0,0,-2.4451,-2.4454,-2.4613,-2.4614,-2.4615,-2.4694,-2.4695,-2.4696,-2.4683,-2.4682,-2.468,-2.4679,-2.4763,-2.4767,-2.4771,0,0,0,0,0,0,0,0,0,0,0,0,0,-2.4525,-2.4455,-2.4613,-2.4618,-2.462,-2.4693,-2.4695,-2.4696,-2.4684,-2.4682,-2.468,-2.4678,-2.4761,-2.4766,-2.4772,-2.4846,0,0,-2.4788,-2.479,0,0,0,0,0,0,0,0,-2.4521,-2.4531,-2.4617,-2.4618,-2.462,-2.4676,-2.4668,-2.4746,-2.4684,-2.466,-2.4679,-2.4677,-2.4736,-2.4744,-2.4763,-2.485,-2.4853,-2.4788,-2.4791,-2.4794,-2.4795,0,0,0,0,0,0,0,-2.4516,-2.4528,-2.4645,-2.4618,-2.462,-2.4618,-2.4626,-2.4683,-2.4709,-2.4662,-2.4661,-2.467,-2.4737,-2.4758,-2.4765,-2.4854,-2.4788,-2.4793,-2.4796,-2.4798,-2.5006,-2.5009,0,0,0,0,0,0,-2.4509,-2.4524,-2.4643,-2.4648,-2.4564,-2.4622,-2.4631,-2.466,-2.4708,-2.4713,-2.4672,-2.467,-2.475,-2.4759,-2.4768,-2.4859,-2.4794,-2.4799,-2.4802,-2.5004,-2.5007,-2.5009,0,0,0,0,0,0,-2.4506,-2.452,-2.4639,-2.4585,-2.46,-2.4627,-2.466,-2.4663,-2.4684,-2.4716,-2.4721,-2.4689,-2.4749,-2.4761,-2.4826,-2.4861,-2.4801,-2.4806,-2.5001,-2.5005,-2.5008,-2.504,0,0,0,0,0,0,-2.4501,-2.4519,-2.4546,-2.4586,-2.4603,-2.4696,-2.4662,-2.4666,-2.4693,-2.4691,-2.4733,-2.4738,-2.4748,-2.4819,-2.4832,-2.4868,-2.481,-2.4998,-2.5003,-2.5007,-2.5036,-2.5044,-2.5051,0,0,0,0,0,-2.4495,-2.4552,-2.4548,-2.4562,-2.4639,-2.4698,-2.4708,-2.4717,-2.4696,-2.4725,-2.4745,-2.4737,-2.4855,-2.4825,-2.484,-2.4878,-2.4996,-2.5002,-2.5007,-2.5032,-2.5042,-2.5051,0,0,0,0,0,0,-2.4517,-2.4558,-2.4553,-2.4625,-2.4658,-2.4695,-2.4732,-2.4728,-2.4768,-2.4764,-2.4775,-2.4785,-2.4851,-2.4871,-2.4837,-2.4953,-2.4923,-2.4931,-2.4937,-2.4947,-2.4955,-2.4949,-2.4814,0,0,0,0,0,-2.453,-2.4574,-2.4607,-2.4667,-2.4684,-2.4705,-2.4731,-2.4736,-2.4771,-2.4785,-2.481,-2.4845,-2.489,-2.492,-2.4963,-2.5038,-2.5048,-2.5072,-2.5079,-2.5085,-2.5093,-2.5135,-2.5146,-2.5027,-2.5027,-2.5027,0,0,-2.4557,-2.4585,-2.4612,-2.4672,-2.4698,-2.4744,-2.4717,-2.4767,-2.4801,-2.4793,-2.4856,-2.4876,-2.4916,-2.4987,-2.502,-2.5006,-2.5128,-2.5092,-2.5097,-2.5101,-2.5142,-2.5153,-2.5163,-2.503,-2.503,-2.5029,0,0,-2.4631,-2.4656,-2.4709,-2.4736,-2.4775,-2.4789,-2.4802,-2.484,-2.4853,-2.4917,-2.4912,-2.4953,-2.503,-2.5059,-2.5084,-2.5169,-2.5163,-2.5183,-2.5223,-2.5264,-2.5273,-2.5282,-2.5313,-2.5324,-2.519,-2.519,-2.519,0,-2.4661,-2.4729,-2.4737,-2.4787,-2.4814,-2.4808,-2.4862,-2.4888,-2.494,-2.4959,-2.4943,-2.504,-2.5066,-2.5144,-2.5165,-2.5185,-2.5201,-2.5178,-2.5271,-2.528,-2.5288,-2.5318,-2.5329,-2.5192,-2.5192,-2.5192,-2.5191,0,-2.4763,-2.4811,-2.4849,-2.4899,-2.493,-2.4982,-2.4999,-2.503,-2.5032,-2.5048,-2.5113,-2.5145,-2.5194,-2.5213,-2.5216,-2.5292,-2.5282,-2.5268,-2.5239,-2.5301,-2.5329,-2.5341,-2.5195,-2.5194,-2.5194,-2.5193,0,0,-2.4853,-2.4907,-2.4921,-2.4944,-2.4987,-2.5024,-2.5077,-2.5125,-2.5151,-2.5187,-2.5232,-2.5298,-2.5285,-2.5313,-2.5319,-2.5355,-2.5422,-2.5337,-2.5338,-2.5352,-2.5509,-2.552,-2.5533,-2.5418,-2.542,-2.5422,-2.5506,0,-2.4932,-2.5023,-2.5032,-2.5114,-2.5159,-2.5154,-2.5199,-2.5231,-2.5247,-2.5288,-2.5306,-2.5353,-2.5332,-2.535,-2.5385,-2.5406,-2.5453,-2.54,-2.546,-2.5463,-2.5451,-2.5547,-2.5559,-2.5637,-2.5517,-2.5519,-2.552,0,-2.5036,-2.5074,-2.516,-2.5198,-2.5217,-2.5258,-2.5303,-2.5342,-2.5378,-2.5388,-2.5419,-2.542,-2.5475,-2.5443,-2.5519,-2.5483,-2.5508,-2.5522,-2.5525,-2.5532,-2.5496,-2.5557,-2.5662,-2.5674,-2.5537,-2.5536,-2.5535,0,-2.5093,-2.5167,-2.5228,-2.5248,-2.5293,-2.5322,-2.5342,-2.5377,-2.5405,-2.5445,-2.5464,-2.551,-2.5535,-2.5571,-2.5585,-2.556,-2.5661,-2.5629,-2.5671,-2.5671,-2.5693,-2.5692,-2.5804,-2.5708,-2.5708,-2.5708,-2.5707,0,-2.518,-2.5234,-2.5255,-2.5293,-2.5353,-2.5363,-2.5422,-2.5441,-2.5472,-2.5514,-2.5513,-2.5553,-2.5568,-2.5611,-2.5622,-2.5684,-2.5695,-2.5705,-2.5708,-2.5706,-2.5705,-2.5723,-2.5719,-2.5711,-2.571,-2.5709,-2.5709,0,-2.5256,-2.5272,-2.5338,-2.5376,-2.5386,-2.5429,-2.5461,-2.5498,-2.5514,-2.5567,-2.558,-2.5605,-2.5655,-2.5673,-2.5734,-2.5741,-2.5814,-2.5811,-2.5801,-2.5802,-2.5843,-2.5839,-2.5972,-2.599,-2.5881,-2.5882,-2.5883,0,-2.531,-2.5351,-2.5393,-2.542,-2.5442,-2.5486,-2.5515,-2.5527,-2.5557,-2.5602,-2.5634,-2.5684,-2.5724,-2.5805,-2.5829,-2.5876,-2.5875,-2.5918,-2.5882,-2.588,-2.5877,-2.5875,-2.588,-2.5925,-2.5927,-2.5927,-2.5928,0,-2.5406,-2.5412,-2.5454,-2.5498,-2.5532,-2.5568,-2.5603,-2.5626,-2.5643,-2.5677,-2.5728,-2.576,-2.5822,-2.5872,-2.592,-2.5942,-2.5939,-2.5939,-2.5952,-2.5951,-2.5943,-2.5949,-2.5821,-2.5936,-2.5936,-2.5935,-2.5935,-2.5934,-2.5474,-2.551,-2.5545,-2.5591,-2.5618,-2.5651,-2.5687,-2.5707,-2.575,-2.5801,-2.5805,-2.5861,-2.5897,-2.5961,-2.5985,-2.6029,-2.6018,-2.6035,-2.604,-2.6044,-2.6048,-2.5936,-2.6038,-2.6038,-2.6038,-2.6037,-2.6037,0,-2.557,-2.5592,-2.5635,-2.5683,-2.572,-2.5712,-2.575,-2.5782,-2.583,-2.5864,-2.5904,-2.5963,-2.6011,-2.6039,-2.6087,-2.6118,-2.6118,-2.613,-2.6129,-2.6134,-2.6055,-2.604,-2.6129,-2.6129,-2.6129,-2.6129,-2.6129,-2.6129,-2.5625,-2.5686,-2.5696,-2.5771,-2.5793,-2.5847,-2.5869,-2.59,-2.5927,-2.5992,-2.6032,-2.605,-2.6082,-2.6133,-2.6177,-2.6184,-2.6203,-2.6217,-2.6223,-2.6149,-2.6139,-2.613,-2.6116,-2.622,-2.622,-2.6298,-2.6299,-2.6299]}]]